Progress Software Gross Margin 2010-2024 | PRGS

Current and historical gross margin for Progress Software (PRGS) over the last 10 years. The current gross profit margin for Progress Software as of February 29, 2024 is %.
Progress Software Gross Margin Historical Data
Date TTM Revenue TTM Gross Profit Gross Margin
2024-02-29 $0.72B $0.58B 81.26%
2023-11-30 $0.69B $0.57B 81.70%
2023-08-31 $0.67B $0.56B 82.79%
2023-05-31 $0.65B $0.54B 83.54%
2023-02-28 $0.62B $0.52B 84.38%
2022-11-30 $0.60B $0.51B 84.39%
2022-08-31 $0.59B $0.49B 84.27%
2022-05-31 $0.58B $0.49B 84.85%
2022-02-28 $0.55B $0.47B 85.02%
2021-11-30 $0.53B $0.45B 85.28%
2021-08-31 $0.51B $0.44B 85.35%
2021-05-31 $0.48B $0.41B 85.26%
2021-02-28 $0.45B $0.39B 85.65%
2020-11-30 $0.44B $0.38B 85.97%
2020-08-31 $0.44B $0.37B 85.13%
2020-05-31 $0.43B $0.36B 83.64%
2020-02-29 $0.43B $0.36B 82.72%
2019-11-30 $0.41B $0.34B 81.64%
2019-08-31 $0.40B $0.32B 81.77%
2019-05-31 $0.38B $0.31B 82.15%
2019-02-28 $0.37B $0.31B 82.09%
2018-11-30 $0.38B $0.31B 82.32%
2018-08-31 $0.39B $0.32B 82.52%
2018-05-31 $0.39B $0.32B 82.44%
2018-02-28 $0.39B $0.32B 82.44%
2017-11-30 $0.39B $0.32B 82.26%
2017-08-31 $0.40B $0.33B 82.96%
2017-05-31 $0.40B $0.34B 83.42%
2017-02-28 $0.41B $0.34B 83.78%
2016-11-30 $0.41B $0.34B 83.95%
2016-08-31 $0.40B $0.34B 84.00%
2016-05-31 $0.39B $0.33B 84.22%
2016-02-29 $0.39B $0.32B 83.94%
2015-11-30 $0.38B $0.31B 83.07%
2015-08-31 $0.36B $0.30B 83.75%
2015-05-31 $0.35B $0.30B 85.01%
2015-02-28 $0.34B $0.30B 87.02%
2014-11-30 $0.33B $0.30B 89.49%
2014-08-31 $0.33B $0.29B 90.18%
2014-05-31 $0.33B $0.29B 89.85%
2014-02-28 $0.33B $0.29B 89.57%
2013-11-30 $0.34B $0.30B 89.25%
2013-08-31 $0.33B $0.29B 88.96%
2013-05-31 $0.32B $0.29B 88.82%
2013-02-28 $0.31B $0.28B 88.85%
2012-11-30 $0.32B $0.28B 88.96%
2012-08-31 $0.33B $0.29B 88.45%
2012-05-31 $0.38B $0.33B 85.79%
2012-02-29 $0.44B $0.37B 83.67%
2011-11-30 $0.49B $0.40B 82.38%
2011-08-31 $0.54B $0.44B 81.45%
2011-05-31 $0.54B $0.44B 81.58%
2011-02-28 $0.54B $0.44B 81.34%
2010-11-30 $0.53B $0.43B 81.13%
2010-08-31 $0.52B $0.42B 81.03%
2010-05-31 $0.51B $0.42B 81.25%
2010-02-28 $0.50B $0.41B 81.44%
2009-11-30 $0.49B $0.40B 80.97%
Sector Industry Market Cap Revenue
Computer and Technology Computer Software $2.141B $0.694B
Progress offers the leading platform for developing and deploying mission-critical business applications. Progress empowers enterprises and ISVs to build and deliver cognitive-first applications that harness big data to derive business insights and competitive advantage. Progress offers leading technologies for easily building powerful user interfaces across any type of device, a reliable, scalable and secure backend platform to deploy modern applications, leading data connectivity to all sources, and award-winning predictive analytics that brings the power of machine learning to any organization.
Stock Name Country Market Cap PE Ratio
Microsoft (MSFT) United States $3289.316B 38.32
Oracle (ORCL) United States $379.650B 30.90
Adobe (ADBE) United States $235.339B 37.68
Salesforce (CRM) United States $224.750B 33.47
Intuit (INTU) United States $166.526B 51.89
Synopsys (SNPS) United States $90.430B 62.32
Cadence Design Systems (CDNS) United States $85.023B 80.85
Dassault Systemes SA (DASTY) France $50.954B 33.10
Autodesk (ADSK) United States $48.788B 44.38
ANSYS (ANSS) United States $28.213B 52.21
MicroStrategy (MSTR) United States $26.526B 0.00
PTC (PTC) United States $20.768B 55.08
SS&C Technologies Holdings (SSNC) United States $15.010B 14.21
Manhattan Associates (MANH) United States $14.090B 74.78
Descartes Systems Group (DSGX) Canada $8.035B 67.28
Open Text (OTEX) Canada $7.853B 7.91
Trend Micro (TMICY) Japan $6.213B 45.00
CommVault Systems (CVLT) United States $5.058B 82.65
Pegasystems (PEGA) United States $4.889B 43.23
Blackbaud (BLKB) United States $3.934B 33.87
ACI Worldwide (ACIW) United States $3.774B 18.08
Verint Systems (VRNT) United States $2.214B 20.74
Sapiens (SPNS) Israel $1.829B 24.94
BlackBerry (BB) Canada $1.381B 0.00
PROS Holdings (PRO) United States $1.252B 0.00
Simulations Plus (SLP) United States $0.933B 68.62
Rand Worldwide (RWWI) United States $0.647B 0.00
Magic Software Enterprises (MGIC) Israel $0.525B 11.15
American Software (AMSWA) United States $0.302B 25.94
Canaan (CAN) China $0.286B 0.00
OptimizeRx (OPRX) United States $0.201B 0.00
Rigetti Computing (RGTI) United States $0.170B 0.00
Icad Inc (ICAD) United States $0.040B 0.00
Wetouch Technology (WETH) $0.035B 0.00
Neonode (NEON) Sweden $0.035B 0.00
NetSol Technologies (NTWK) United States $0.031B 0.00
Smith Micro Software (SMSI) United States $0.022B 0.00
Hanryu Holdings (HRYU) South Korea $0.016B 0.00
GSE Systems (GVP) United States $0.012B 0.00
SAP SE (SAP) Germany $0.000B 48.04